| time (UTC) | temp F | wind direction | speed MPH | gust MPH | rain 1hr in | rain 24hr in | rain mn in | humidity % | barometer mb |
| 20260510223016 | 69 | 305 | 1.0 | 5.0 | 0.00 | 0.18 | 0.00 | 69 | 1010.6 |
| 20260510222021 | 69 | 303 | 2.0 | 2.0 | 0.00 | 0.21 | 0.00 | 69 | 1010.7 |
| 20260510221020 | 70 | 316 | 1.0 | 1.0 | 0.00 | 0.23 | 0.00 | 68 | 1010.5 |
| 20260510220005 | 70 | 260 | 2.0 | 6.0 | 0.00 | 0.26 | 0.00 | 67 | 1010.5 |
| 20260510215023 | 70 | 311 | 2.0 | 3.0 | 0.00 | 0.28 | 0.00 | 67 | 1010.4 |
| 20260510214007 | 70 | 317 | 1.0 | 2.0 | 0.00 | 0.28 | 0.00 | 66 | 1010.4 |
| 20260510213026 | 71 | 265 | 3.0 | 7.0 | 0.00 | 0.30 | 0.00 | 66 | 1010.3 |
| 20260510212011 | 72 | 270 | 4.0 | 7.0 | 0.00 | 0.32 | 0.00 | 63 | 1010.1 |
| 20260510211029 | 71 | 298 | 2.0 | 3.0 | 0.00 | 0.34 | 0.00 | 65 | 1010.2 |
| 20260510210034 | 71 | 294 | 2.0 | 5.0 | 0.00 | 0.34 | 0.00 | 66 | 1010.1 |
| 20260510205032 | 71 | 304 | 1.0 | 8.0 | 0.00 | 0.34 | 0.00 | 64 | 1010.3 |
| 20260510204017 | 72 | 295 | 4.0 | 9.0 | 0.00 | 0.35 | 0.00 | 61 | 1010.1 |
| 20260510203003 | 72 | 313 | 3.0 | 5.0 | 0.00 | 0.35 | 0.00 | 63 | 1010.3 |
| 20260510201916 | 73 | 296 | 2.0 | 6.0 | 0.00 | 0.35 | 0.00 | 64 | 1010.0 |
| 20260510200901 | 72 | 300 | 3.0 | 6.0 | 0.00 | 0.35 | 0.00 | 64 | 1010.1 |
| 20260510195919 | 72 | 292 | 3.0 | 6.0 | 0.00 | 0.35 | 0.00 | 63 | 1010.3 |
| 20260510194905 | 72 | 288 | 3.0 | 7.0 | 0.00 | 0.36 | 0.00 | 64 | 1010.4 |
| 20260510193923 | 72 | 285 | 3.0 | 5.0 | 0.00 | 0.36 | 0.00 | 65 | 1010.3 |
| 20260510192908 | 71 | 270 | 3.0 | 6.0 | 0.00 | 0.36 | 0.00 | 66 | 1010.5 |
| 20260510191927 | 71 | 288 | 3.0 | 5.0 | 0.00 | 0.36 | 0.00 | 66 | 1010.6 |
| 20260510190912 | 72 | 304 | 2.0 | 3.0 | 0.00 | 0.36 | 0.00 | 67 | 1010.6 |
| 20260510185930 | 71 | 317 | 2.0 | 5.0 | 0.00 | 0.36 | 0.00 | 67 | 1010.6 |
| 20260510184915 | 71 | 315 | 2.0 | 8.0 | 0.00 | 0.36 | 0.00 | 67 | 1010.8 |
| 20260510183933 | 71 | 299 | 2.0 | 5.0 | 0.00 | 0.36 | 0.00 | 68 | 1010.9 |
| 20260510182919 | 70 | 274 | 3.0 | 7.0 | 0.00 | 0.36 | 0.00 | 69 | 1010.8 |
| 20260510181938 | 69 | 280 | 3.0 | 5.0 | 0.00 | 0.36 | 0.00 | 70 | 1011.0 |
| 20260510180923 | 69 | 314 | 1.0 | 6.0 | 0.00 | 0.36 | 0.00 | 71 | 1011.0 |
| 20260510175908 | 69 | 313 | 1.0 | 3.0 | 0.00 | 0.36 | 0.00 | 71 | 1011.3 |
| 20260510174947 | 69 | 288 | 3.0 | 6.0 | 0.00 | 0.36 | 0.00 | 71 | 1011.4 |
| 20260510173911 | 68 | 285 | 2.0 | 6.0 | 0.00 | 0.37 | 0.00 | 70 | 1011.4 |
| 20260510172929 | 69 | 291 | 2.0 | 5.0 | 0.00 | 0.37 | 0.00 | 70 | 1011.6 |
| 20260510171914 | 70 | 284 | 3.0 | 5.0 | 0.00 | 0.37 | 0.00 | 70 | 1011.7 |
| 20260510170932 | 68 | 300 | 3.0 | 7.0 | 0.00 | 0.37 | 0.00 | 71 | 1011.5 |
| 20260510165918 | 67 | 267 | 2.0 | 5.0 | 0.00 | 0.37 | 0.00 | 74 | 1011.7 |
| 20260510164938 | 66 | 272 | 2.0 | 8.0 | 0.00 | 0.37 | 0.00 | 73 | 1011.9 |
| 20260510163923 | 67 | 286 | 2.0 | 6.0 | 0.00 | 0.37 | 0.00 | 73 | 1011.8 |
| 20260510162943 | 66 | 287 | 2.0 | 5.0 | 0.00 | 0.37 | 0.00 | 74 | 1011.9 |
| 20260510161929 | 66 | 277 | 2.0 | 6.0 | 0.00 | 0.37 | 0.00 | 73 | 1012.0 |
| 20260510160915 | 65 | 312 | 1.0 | 6.0 | 0.00 | 0.37 | 0.00 | 75 | 1012.1 |
| 20260510155934 | 64 | 308 | 1.0 | 5.0 | 0.00 | 0.37 | 0.00 | 78 | 1012.0 |
| 20260510154921 | 63 | 318 | 2.0 | 2.0 | 0.00 | 0.37 | 0.00 | 79 | 1011.9 |
| 20260510154020 | 62 | 323 | 0.0 | 2.0 | 0.00 | 0.37 | 0.00 | 81 | 1012.1 |
| 20260510152926 | 62 | 318 | 2.0 | 5.0 | 0.00 | 0.37 | 0.00 | 81 | 1012.0 |
| 20260510151945 | 62 | 300 | 1.0 | 2.0 | 0.00 | 0.37 | 0.00 | 81 | 1012.2 |
| 20260510150930 | 62 | 315 | 1.0 | 2.0 | 0.00 | 0.37 | 0.00 | 80 | 1012.1 |
| 20260510145916 | 62 | 275 | 3.0 | 6.0 | 0.00 | 0.37 | 0.00 | 80 | 1012.1 |
| 20260510144935 | 63 | 312 | 2.0 | 2.0 | 0.00 | 0.37 | 0.00 | 80 | 1012.1 |
| 20260510143920 | 62 | 310 | 1.0 | 3.0 | 0.00 | 0.37 | 0.00 | 81 | 1012.1 |
| 20260510142939 | 61 | 311 | 1.0 | 1.0 | 0.00 | 0.37 | 0.00 | 82 | 1012.2 |
| 20260510141924 | 60 | 0.0 | 1.0 | 0.00 | 0.37 | 0.00 | 83 | 1012.3 | |
| 20260510141001 | 60 | 307 | 1.0 | 2.0 | 0.00 | 0.37 | 0.00 | 84 | 1012.2 |
| 20260510135927 | 60 | 303 | 2.0 | 2.0 | 0.00 | 0.37 | 0.00 | 84 | 1012.1 |
| 20260510134945 | 59 | 281 | 2.0 | 5.0 | 0.00 | 0.37 | 0.00 | 85 | 1012.2 |
| 20260510133930 | 58 | 308 | 1.0 | 1.0 | 0.00 | 0.37 | 0.00 | 87 | 1012.3 |
| 20260510132947 | 57 | 310 | 1.0 | 2.0 | 0.00 | 0.37 | 0.00 | 88 | 1012.2 |
| 20260510131931 | 57 | 318 | 0.0 | 1.0 | 0.00 | 0.37 | 0.00 | 90 | 1012.1 |
| 20260510130949 | 56 | 302 | 1.0 | 2.0 | 0.00 | 0.37 | 0.00 | 90 | 1012.0 |
| 20260510130054 | 56 | 0.0 | 1.0 | 0.00 | 0.37 | 0.00 | 92 | 1012.1 | |
| 20260510124919 | 55 | 321 | 0.0 | 1.0 | 0.00 | 0.37 | 0.00 | 93 | 1012.2 |
| 20260510123938 | 55 | 309 | 1.0 | 1.0 | 0.00 | 0.37 | 0.00 | 94 | 1012.3 |
| 20260510122942 | 55 | 332 | 0.0 | 1.0 | 0.00 | 0.37 | 0.00 | 95 | 1011.9 |
| 20260510121938 | 55 | 0.0 | 2.0 | 0.00 | 0.38 | 0.00 | 95 | 1012.0 | |
| 20260510120944 | 54 | 321 | 1.0 | 2.0 | 0.00 | 0.38 | 0.00 | 95 | 1011.8 |
| 20260510115942 | 54 | 334 | 0.0 | 1.0 | 0.00 | 0.38 | 0.00 | 96 | 1011.7 |
| 20260510114948 | 54 | 303 | 2.0 | 3.0 | 0.00 | 0.39 | 0.00 | 96 | 1011.5 |
| 20260510113945 | 53 | 289 | 2.0 | 5.0 | 0.00 | 0.39 | 0.00 | 97 | 1011.5 |
| 20260510112931 | 53 | 310 | 1.0 | 2.0 | 0.00 | 0.39 | 0.00 | 97 | 1011.5 |
| 20260510111949 | 53 | 299 | 1.0 | 7.0 | 0.00 | 0.40 | 0.00 | 97 | 1011.9 |
| 20260510110934 | 52 | 317 | 0.0 | 2.0 | 0.00 | 0.40 | 0.00 | 97 | 1011.9 |
| 20260510105953 | 52 | 323 | 1.0 | 1.0 | 0.00 | 0.40 | 0.00 | 98 | 1012.0 |
| 20260510104938 | 52 | 319 | 0.0 | 1.0 | 0.00 | 0.40 | 0.00 | 98 | 1012.1 |
| 20260510103957 | 52 | 316 | 0.0 | 1.0 | 0.00 | 0.40 | 0.00 | 98 | 1011.9 |
| 20260510102941 | 52 | 320 | 1.0 | 2.0 | 0.00 | 0.40 | 0.00 | 98 | 1011.8 |
| 20260510101927 | 52 | 314 | 0.0 | 2.0 | 0.00 | 0.40 | 0.00 | 98 | 1011.9 |
| 20260510100945 | 52 | 0.0 | 0.0 | 0.00 | 0.40 | 0.00 | 98 | 1011.8 | |
| 20260510095929 | 52 | 313 | 0.0 | 1.0 | 0.00 | 0.40 | 0.00 | 98 | 1012.2 |
| 20260510094947 | 52 | 314 | 1.0 | 2.0 | 0.00 | 0.40 | 0.00 | 98 | 1012.1 |
| 20260510093932 | 52 | 320 | 1.0 | 2.0 | 0.00 | 0.40 | 0.00 | 98 | 1011.6 |
| 20260510092951 | 51 | 0.0 | 0.0 | 0.00 | 0.40 | 0.00 | 98 | 1011.4 | |
| 20260510091935 | 51 | 0.0 | 0.0 | 0.00 | 0.40 | 0.00 | 98 | 1011.3 | |
| 20260510090953 | 51 | 0.0 | 0.0 | 0.00 | 0.40 | 0.00 | 98 | 1011.1 | |
| 20260510085937 | 51 | 0.0 | 0.0 | 0.00 | 0.40 | 0.00 | 98 | 1011.1 | |
| 20260510084955 | 52 | 0.0 | 0.0 | 0.00 | 0.40 | 0.00 | 98 | 1011.0 | |
| 20260510083941 | 52 | 0.0 | 1.0 | 0.00 | 0.40 | 0.00 | 98 | 1011.1 | |
| 20260510083019 | 52 | 0.0 | 1.0 | 0.00 | 0.40 | 0.00 | 98 | 1011.1 | |
| 20260510082005 | 52 | 0.0 | 0.0 | 0.00 | 0.40 | 0.00 | 98 | 1011.4 | |
| 20260510081023 | 52 | 0.0 | 1.0 | 0.00 | 0.40 | 0.00 | 98 | 1011.2 | |
| 20260510075949 | 52 | 323 | 0.0 | 1.0 | 0.00 | 0.40 | 0.00 | 98 | 1011.3 |
| 20260510074934 | 52 | 0.0 | 0.0 | 0.00 | 0.40 | 0.00 | 98 | 1011.3 | |
| 20260510073952 | 52 | 0.0 | 0.0 | 0.00 | 0.40 | 0.00 | 98 | 1011.1 | |
| 20260510072936 | 52 | 282 | 0.0 | 1.0 | 0.00 | 0.40 | 0.00 | 98 | 1011.0 |
| 20260510071955 | 52 | 0.0 | 0.0 | 0.00 | 0.40 | 0.00 | 98 | 1010.8 | |
| 20260510071021 | 52 | 0.0 | 0.0 | 0.00 | 0.40 | 0.00 | 98 | 1010.5 | |
| 20260510065955 | 52 | 0.0 | 0.0 | 0.00 | 0.40 | 0.00 | 98 | 1010.4 | |
| 20260510064939 | 52 | 308 | 0.0 | 1.0 | 0.00 | 0.40 | 0.00 | 98 | 1010.6 |
| 20260510063958 | 52 | 311 | 0.0 | 1.0 | 0.00 | 0.40 | 0.00 | 98 | 1011.0 |
| 20260510063005 | 52 | 309 | 1.0 | 2.0 | 0.00 | 0.40 | 0.00 | 98 | 1010.9 |
| 20260510062001 | 52 | 0.0 | 1.0 | 0.00 | 0.40 | 0.00 | 98 | 1010.9 | |
| 20260510060946 | 51 | 309 | 1.0 | 1.0 | 0.00 | 0.40 | 0.00 | 98 | 1010.8 |
| 20260510060005 | 51 | 324 | 0.0 | 1.0 | 0.00 | 0.40 | 0.00 | 98 | 1010.8 |
| 20260510054949 | 51 | 0.0 | 0.0 | 0.00 | 0.40 | 0.00 | 98 | 1010.8 | |
| 20260510054006 | 51 | 0.0 | 0.0 | 0.00 | 0.40 | 0.00 | 98 | 1010.6 | |
| 20260510052951 | 51 | 0.0 | 0.0 | 0.00 | 0.40 | 0.00 | 98 | 1010.6 | |
| 20260510052008 | 51 | 315 | 0.0 | 1.0 | 0.00 | 0.40 | 0.00 | 98 | 1010.7 |
| 20260510050954 | 51 | 0.0 | 0.0 | 0.00 | 0.40 | 0.00 | 98 | 1010.9 | |
| 20260510050031 | 51 | 0.0 | 0.0 | 0.00 | 0.40 | 0.00 | 98 | 1010.9 | |
| 20260510044956 | 51 | 0.0 | 0.0 | 0.00 | 0.40 | 0.00 | 98 | 1010.9 | |
| 20260510043942 | 51 | 0.0 | 0.0 | 0.01 | 0.40 | 0.00 | 98 | 1011.0 | |
| 20260510043002 | 51 | 0.0 | 0.0 | 0.01 | 0.40 | 0.00 | 98 | 1011.1 | |
| 20260510041946 | 51 | 0.0 | 0.0 | 0.01 | 0.40 | 0.00 | 98 | 1010.9 | |
| 20260510041006 | 51 | 0.0 | 0.0 | 0.01 | 0.40 | 0.00 | 98 | 1011.1 | |
| 20260510035951 | 51 | 0.0 | 0.0 | 0.01 | 0.40 | 0.40 | 97 | 1011.0 | |
| 20260510035009 | 51 | 0.0 | 0.0 | 0.01 | 0.40 | 0.40 | 97 | 1010.8 | |
| 20260510033954 | 51 | 0.0 | 0.0 | 0.01 | 0.39 | 0.39 | 97 | 1011.0 | |
| 20260510033012 | 51 | 0.0 | 0.0 | 0.01 | 0.39 | 0.39 | 97 | 1011.1 | |
| 20260510031958 | 51 | 0.0 | 0.0 | 0.01 | 0.39 | 0.39 | 97 | 1011.2 | |
| 20260510031056 | 51 | 0.0 | 0.0 | 0.01 | 0.39 | 0.39 | 97 | 1011.2 | |
| 20260510030001 | 51 | 330 | 0.0 | 1.0 | 0.01 | 0.39 | 0.39 | 97 | 1011.6 |
| 20260510024946 | 51 | 0.0 | 0.0 | 0.01 | 0.39 | 0.39 | 97 | 1011.4 | |
| 20260510024004 | 51 | 0.0 | 0.0 | 0.00 | 0.38 | 0.38 | 97 | 1011.7 | |
| 20260510022949 | 51 | 0.0 | 0.0 | 0.00 | 0.38 | 0.38 | 97 | 1011.8 | |
| 20260510022008 | 51 | 326 | 0.0 | 1.0 | 0.00 | 0.38 | 0.38 | 97 | 1011.7 |
| 20260510020954 | 51 | 0.0 | 0.0 | 0.00 | 0.38 | 0.38 | 97 | 1012.0 | |
| 20260510020012 | 52 | 0.0 | 0.0 | 0.00 | 0.38 | 0.38 | 97 | 1012.1 | |
| 20260510014957 | 52 | 332 | 0.0 | 1.0 | 0.00 | 0.38 | 0.38 | 97 | 1012.1 |
| 20260510014015 | 52 | 283 | 2.0 | 3.0 | 0.00 | 0.38 | 0.38 | 97 | 1012.2 |
| 20260510013001 | 52 | 0.0 | 2.0 | 0.00 | 0.38 | 0.38 | 97 | 1012.2 | |
| 20260510012019 | 52 | 0.0 | 0.0 | 0.00 | 0.38 | 0.38 | 97 | 1012.2 | |
| 20260510011005 | 53 | 0.0 | 1.0 | 0.00 | 0.38 | 0.38 | 97 | 1012.1 | |
| 20260510005949 | 53 | 322 | 1.0 | 2.0 | 0.00 | 0.38 | 0.38 | 97 | 1012.4 |
| 20260510005008 | 53 | 305 | 2.0 | 3.0 | 0.01 | 0.38 | 0.38 | 97 | 1012.1 |
| 20260510003953 | 54 | 322 | 0.0 | 1.0 | 0.02 | 0.38 | 0.38 | 97 | 1012.1 |
| 20260510003011 | 54 | 0.0 | 0.0 | 0.04 | 0.38 | 0.38 | 97 | 1012.2 | |
| 20260510002017 | 54 | 0.0 | 1.0 | 0.06 | 0.38 | 0.38 | 97 | 1012.3 | |
| 20260510001016 | 54 | 0.0 | 0.0 | 0.08 | 0.38 | 0.38 | 97 | 1012.1 | |
| 20260510000000 | 54 | 0.0 | 1.0 | 0.09 | 0.38 | 0.38 | 97 | 1012.2 | |
| 20260509235039 | 54 | 296 | 1.0 | 2.0 | 0.10 | 0.37 | 0.37 | 96 | 1012.2 |
| 20260509234004 | 54 | 0.0 | 0.0 | 0.12 | 0.36 | 0.36 | 96 | 1012.2 | |
| 20260509233023 | 54 | 314 | 1.0 | 2.0 | 0.12 | 0.34 | 0.34 | 96 | 1012.2 |
| 20260509232008 | 54 | 300 | 2.0 | 3.0 | 0.13 | 0.32 | 0.32 | 96 | 1012.3 |
| 20260509230921 | 54 | 273 | 2.0 | 2.0 | 0.13 | 0.30 | 0.30 | 96 | 1012.0 |
| 20260509230012 | 55 | 299 | 1.0 | 2.0 | 0.15 | 0.29 | 0.29 | 96 | 1012.0 |
| 20260509224957 | 55 | 285 | 1.0 | 2.0 | 0.15 | 0.27 | 0.27 | 96 | 1011.8 |
| 20260509224015 | 55 | 296 | 1.0 | 2.0 | 0.12 | 0.24 | 0.24 | 96 | 1011.8 |